Время (UTC), дата Ветер
(°,м/с) 
Видим.   Явления Облачность Т
(°С)
Тd
(°С)
f(%) Тe
(°С)
Pmin
(гПа)
dP
(гПа)
Po
(мм)
O2
(г/м3)
Тmin Tmax R s Состояние
почвы
00 01.07.10 080 (В) 10 км    ясно 
+13.4 +5.6 59 +14  1019.7  0.7  754  289           
03 01.07.10 060 (СВ) >10 км    ясно 
+14.9 +5.6 54 +16  1020.4  0.7  755  287           
06 01.07.10 080 (В) >10 км    ясно 
+17.6 +8 53 +18  1021.5  1.3  756  285  +13         
09 01.07.10 070 (В) >10 км    ясно 
+20.7 +7.3 42 +21  1019.8  -1.6  754  281           
12 01.07.10 070 (В) >10 км    ясно 
+22 +8.1 41 +22  1019.4  -0.3  754  280           
15 01.07.10 080 (В) >10 км    ясно 
+22.2 +8.1 40 +22  1018.9  -0.5  754  280           
18 01.07.10 040 (СВ) 10 км    ясно 
+19.7 +6.5 42 +21  1019  754  282    +22.6       
21 01.07.10 090 (В) 10 км    ясно 
+16.1 +5.5 49 +17  1019.7  0.5  754  286           
00 02.07.10 070 (В) 10 км    ясно 
+13.9 +5.5 57 +14  1020.3  0.5  755  288           
03 02.07.10 090 (В) >10 км    ясно 
+14.9 +6.4 57 +15  1020.3  0.1  755  287           
06 02.07.10 090 (В) >10 км    ясно 
+20.5 +5.9 39 +21  1020.8  0.7  755  282  +13.8         
09 02.07.10 080 (В) >10 км    ясно 
+23.6 +7.4 35 +24  1019.7  -0.9  754  279           
12 02.07.10 050 (СВ) >10 км    ясно 
+25.2 +4.8 27 +25  1018.4  -1.2  754  277           
15 02.07.10 060 (СВ) >10 км    ясно 
+25.7 +6.2 29 +26  1017.2  -1.2  753  276           
18 02.07.10 тихо ()   10 км    ясно 
+20.5 +10.6 53 +22  1017.5  753  280    +26.3       
21 02.07.10 080 (В) 10 км    ясно 
+19.9 +6.8 43 +21  1017.1  -0.1  752  281           
00 03.07.10 080 (В) 10 км    ясно 
+18.4 +4.6 40 +19  1017.3  0.1  752  283           
03 03.07.10 100 (В) >10 км    ясно 
+19.9 +7.4 44 +21  1016.9  -0.3  752  281           
06 03.07.10 060 (СВ) >10 км    6/0 верхняя 
[Ci fib]
+25.3 +12.5 45 +30  1015.7  -0.8  752  275  +18         
09 03.07.10 130 (ЮВ) >10 км    9/0 кучево-дожд., средняя 
[Cb calv|Ac As]
+29 +13.2 38 +35  1015  -0.5  751  271           
12 03.07.10 140 (ЮВ) >10 км    8/0 средняя 
[Cu hum|Ac As]
+28.9 +14.8 42 +37  1014.7  -0.3  751  271           
15 03.07.10 тихо ()   >10 км    9/9 600 м 
[Sc diur, vesp]
+28.4 +15 44 +37  1013.7  -1  750  271           
18 03.07.10 тихо ()   10 км  {дождь}  10/10 600 м 
[Sc]
+24 +15.2 58 +33  1013.9  -0.1  750  275    +30.3       
21 03.07.10 тихо ()   10 км    10/10 600 м 
[Sc]
+23.7 +15.4 60 +33  1013.6  -0.3  750  275           
00 04.07.10 тихо ()   10 км    10/10 600 м 
[Sc]
+20.8 +14.9 69 +29  1013.6  -0.1  750  278           
03 04.07.10 350 (С) >10 км  слаб. дождь  10/10 600 м 
[Sc]
+20.9 +15.3 70 +30  1013.4  -0.2  750  277           
06 04.07.10 270 (З) 10 км  слаб. дождь  10/10 300 м 
[Ns]
+20.1 +17.5 85 +33  1012.8  -0.6  749  277  +19.7    0.0     
09 04.07.10 020 (С) 10 км  в посл. час дождь  9/9 600 м 
[Sc]
+20.9 +18.7 87 +37  1012.8  749  276           
12 04.07.10 310 (СЗ) 10 км  {дождь}  9/9 600 м 
[Sc]
+24.6 +13.9 51 +31  1012.1  -0.5  749  274           
15 04.07.10 280 (З) 10 км    9/9 600 м 
[Sc]
+24.5 +16.2 60 +35  1011.3  -0.8  748  273           
18 04.07.10 020 (С) 10 км    10/10 600 м 
[Sc]
+24 +12.7 49 +29  1012.6  1.2  749  275    +25.1     
21 04.07.10 060 (СВ) 10 км    10/10 600 м 
[Sc]
+22.5 +12.1 52 +27  1013.3  0.7  750  277           
00 05.07.10 030 (СВ) 10 км    ясно 
+19.3 +11.8 62 +24  1014.6  1.1  751  280           
03 05.07.10 020 (С) >10 км    3/0 верхняя 
[Ci fib]
+18.9 +10.7 59 +22  1016.2  1.6  752  281           
06 05.07.10 030 (СВ) >10 км    ясно 
+22.3 +11.4 50 +25  1016.6  0.4  752  278  +18.3         
09 05.07.10 050 (СВ) >10 км    ясно 
+25.1 +8.6 35 +25  1016.4  752  276           
12 05.07.10 010 (С) >10 км    ясно 
+26.9 +8 30 +27  1015.2  -1  751  274           
15 05.07.10 050 (СВ) >10 км    ясно 
+26.5 +9 33 +27  1014.8  -0.5  751  274           
18 05.07.10 050 (СВ) 10 км    ясно 
+24.3 +10.6 42 +26  1015.1  0.2  751  276    +27.6       
21 05.07.10 050 (СВ) 10 км    ясно 
+20.5 +13.1 63 +26  1015.7  0.5  751  279           
00 06.07.10 050 (СВ) 10 км    ясно 
+19.7 +12.6 64 +26  1016.2  0.4  752  280           
03 06.07.10 050 (СВ) >10 км    ясно 
+20.3 +12.9 62 +25  1016.2  0.1  752  279           
06 06.07.10 030 (СВ) >10 км    ясно 
+23.9 +13.6 52 +30  1016.5  0.3  752  276  +18.7         
09 06.07.10 040 (СВ) >10 км    3/3 600 м 
[Cu hum]
+26.2 +13.3 45 +32  1015.3  -1  751  274           
12 06.07.10 070 (В) >10 км    3/3 600 м 
[Cu hum]
+28.4 +13.9 41 +35  1014.3  -0.8  751  271           
15 06.07.10 050 (СВ) >10 км    ясно 
+28.4 +12.8 38 +33  1013.5  -0.8  750  271           
18 06.07.10 070 (В) >10 км    ясно 
+25.3 +14 50 +32  1013.8  0.1  750  274    +29.1       
21 06.07.10 080 (В) >10 км    ясно 
+22.7 +12.5 53 +27  1014.1  0.2  750  277           
00 07.07.10 080 (В) >10 км    ясно 
+20.3 +12.7 62 +25  1014.9  0.7  751  279           
03 07.07.10 090 (В) >10 км    ясно 
+21.5 +13.7 61 +28  1015.3  0.4  751  278           
06 07.07.10 100 (В) >10 км    ясно 
+26 +10.5 38 +28  1015.2  0.1  751  275  +20.1         
09 07.07.10 110 (В) >10 км    ясно 
+28.1 +10.4 33 +30  1014.5  -0.6  751  272           
12 07.07.10 320 (СЗ) >10 км    ясно 
+30.9 +9.8 27 +32  1014  -0.4  750  270           
15 07.07.10 100 (В) >10 км    ясно 
+30.4 +10.5 29 +32  1013.1  -0.9  750  270           
18 07.07.10 тихо ()   10 км    ясно 
+25.7 +12.2 43 +30  1013.8  0.5  750  274    +31.5       
21 07.07.10 тихо ()   10 км    3/3 600 м 
[Sc diur, vesp]
+22.7 +13 54 +28  1014.5  0.6  751  277           
00 08.07.10 тихо ()   10 км    3/3 600 м 
[Sc]
+21.7 +14.6 64 +30  1015.5  0.9  751  277           
03 08.07.10 260 (З) >10 км    ясно 
+23.1 +15.5 62 +33  1015.7  0.3  752  276           
06 08.07.10 310 (СЗ) >10 км    1/1 600 м 
[Cu hum]
+28.6 +16.2 47 +39  1015.1  -0.3  751  271  +21.5         
09 08.07.10 100 (В) >10 км    6/6 600 м кучево-дожд. 
[Cb calv]
+29.6 +14.2 39 +37  1015  -0.1  751  270           
12 08.07.10 270 (З) 1{12}  >10 км  в посл. час гроза{ливн. осадки}  5/4 600 м кучево-дожд., средняя 
[Cb calv|Ac lent]
+26.7 +17.9 59 +41  1015  -0.1  751  272           
15 08.07.10 270 (З) >10 км    6/4 600 м кучево-дожд., средняя 
[Cb calv|Ac lent]
+30.3 +14.8 39 +39  1014.8  -0.1  751  269           
18 08.07.10 350 (С) 10 км    4/3 600 м средняя 
[Cu med, cong|Ac cast]
+28.3 +15.7 46 +38  1015.2  0.3  751  271    +33.1     
21 08.07.10 тихо ()   10 км    ясно 
+22.5 +17.2 72 +35  1015.4  751  276           
00 09.07.10 тихо ()   10 км    ясно 
+21.9 +15.9 69 +32  1016.1  0.6  752  277           
03 09.07.10 тихо ()   >10 км    ясно 
+23.9 +18.2 70 +39  1016  0.1  752  274           
06 09.07.10 110 (В) >10 км    ясно 
+30.4 +15.3 40 +40  1016.1  0.3  752  270  +19.7         
09 09.07.10 120 (ЮВ) >10 км    3/3 600 м верхняя 
[Cu hum|Ci fib]
+32.6 +15.1 35 +41  1015.8  -0.2  752  268           
12 09.07.10 300 (СЗ) >10 км    3/3 600 м 
[Cu hum]
+33.5 +18.9 42 +50  1014.7  -1  751  265           
15 09.07.10 тихо ()   >10 км    3/3 600 м 
[Cu hum]
+33.5 +16.3 36 +44  1014.3  -0.5  751  266           
18 09.07.10 тихо ()   10 км    3/3 600 м 
[Sc diur, vesp]
+27.9 +15.9 48 +38  1014.6  0.2  751  271    +34.6       
21 09.07.10 тихо ()   10 км    ясно 
+25.9 +16.5 56 +37  1015.2  0.4  751  273           
00 10.07.10 тихо ()   10 км    ясно 
+23.9 +14.9 57 +32  1015.8  0.5  752  275           
03 10.07.10 тихо ()   >10 км    ясно 
+25.3 +16.4 58 +36  1015.9  0.2  752  274           
06 10.07.10 тихо ()   >10 км    ясно 
+30.4 +15 39 +39  1016.1  0.4  752  270  +23.1         
09 10.07.10 350 (С) >10 км  гроза без осадков  8/8 600 м кучево-дожд. 
[Cb cap]
+33.3 +15.1 33 +42  1015.6  -0.4  752  267           
12 10.07.10 тихо () {12}  >10 км  {гроза}  9/3 600 м верхняя 
[Cu med, cong|Ci fib]
+30.2 +17.1 45 +43  1015.6  -0.1  752  269           
15 10.07.10 290 (З) >10 км    6/1 600 м верхняя 
[Cu med, cong|Ci fib]
+33.9 +14.7 32 +42  1014.5  -1  751  266           
18 10.07.10 тихо ()   10 км    6/0 средняя 
[Ac cast]
+27.5 +17.2 53 +40  1014.9  0.2  751  271    +34.5       
21 10.07.10 тихо ()   10 км    ясно 
+26.3 +18.1 61 +41  1015.1  0.2  751  272           
00 11.07.10 тихо ()   10 км    ясно 
+22.5 +16.9 71 +35  1015  -0.3  751  276           
03 11.07.10 350 (С) >10 км    4/0 средняя 
[Ac lent]
+25.7 +18.5 64 +41  1014.6  -0.2  751  272           
06 11.07.10 020 (С) >10 км    10/0 средняя, верхняя 
[Ac As|Ci fib]
+28.9 +20 59 +47  1015.1  0.6  751  269  +22         
09 11.07.10 050 (СВ) 2{10}  >10 км  слаб. ливневой дождь, в посл. час гроза  9/9 600 м кучево-дожд. 
[Cb calv]
+21.7 +20.5 93 +41  1015.9  0.5  752  275           
12 11.07.10 350 (С) >10 км  {гроза, ливн. осадки}  8/4 600 м средняя, верхняя 
[Sc diur, vesp|Ac cuf|Ci fib]
+27.5 +18.8 59 +43  1014.5  -1.1  751  271           
15 11.07.10 020 (С) >10 км    6/6 600 м 
[Cu hum]
+28.7 +17.9 52 +43  1014.1  -0.4  751  270           
18 11.07.10 тихо ()   10 км  в посл. час гроза{ливн. осадки}  9/8 600 м кучево-дожд., верхняя 
[Cb cap|Ci fib]
+22.9 +19.3 80 +40  1015.1  0.7  751  275    +29.4     
21 11.07.10 010 (С) 10 км    ясно 
+23 +17.4 71 +36  1014.7  -0.4  751  275           
00 12.07.10 тихо ()   10 км    ясно 
+21.5 +19 86 +38  1014.7  -0.1  751  276           
03 12.07.10 тихо ()   >10 км    ясно 
+22.1 +19.5 85 +40  1014.2  -0.4  750  275           
06 12.07.10 290 (З) >10 км    ясно 
+26.1 +19.6 67 +44  1013.7  -0.3  750  271  +21.5       
09 12.07.10 340 (С) >10 км    6/6 600 м кучево-дожд. 
[Cb calv]
+30.1 +16 43 +41  1012.5  -1.1  749  269           
12 12.07.10 280 (З) >10 км    4/3 600 м верхняя 
[Cu med, cong|Ci fib]
+31.3 +12 31 +35  1011.8  -0.7  749  268           
15 12.07.10 350 (С) >10 км    3/3 600 м 
[Sc diur, vesp]
+30.5 +12.6 33 +35  1011.2  -0.6  748  269           
18 12.07.10 340 (С) 10 км    4/4 600 м 
[Sc diur, vesp]
+25.9 +15.4 52 +35  1012.4  749  272    +31.7       
21 12.07.10 030 (СВ) 10 км    ясно 
+22 +10.7 49 +24  1012.7  0.1  749  277           
00 13.07.10 350 (С) 10 км    8/0 верхняя 
[Ci fib]
+18.7 +11 61 +22  1013.9  1.1  750  281           
03 13.07.10 040 (СВ) >10 км    ясно 
+17.7 +12.3 71 +23  1014.6  0.6  750  282           
06 13.07.10 020 (С) >10 км    8/8 1000 м 
[Cu med, cong]
+19.2 +13.6 70 +26  1014  -0.5  750  280  +17.5         
09 13.07.10 020 (С) >10 км    6/0 верхняя 
[Ci fib]
+22.9 +6.5 35 +23  1013.7  -0.2  750  278           
12 13.07.10 330 (СЗ) >10 км    6/0 верхняя 
[Ci fib]
+25.2 +6.1 29 +25  1012.8  -0.7  749  275           
15 13.07.10 120 (ЮВ) >10 км    8/0 верхняя 
[Ci fib]
+23.6 +8.2 37 +24  1012.3  -0.6  749  276           
18 13.07.10 050 (СВ) 10 км    6/0 верхняя 
[Ci fib]
+19.9 +7.4 44 +21  1013.1  0.6  749  280    +25.7       
21 13.07.10 090 (В) 10 км    4/0 верхняя 
[Ci fib]
+15.9 +7 55 +17  1013.7  0.4  750  284           
00 14.07.10 020 (С) 10 км    4/0 верхняя 
[Ci fib]
+13.3 +7.4 67 +14  1013.9  0.1  750  287           
03 14.07.10 020 (С) >10 км    3/0 верхняя 
[Ci fib]
+14.5 +8.8 69 +16  1015.1  1.2  751  286           
06 14.07.10 030 (СВ) >10 км    6/0 верхняя 
[Ci fib]
+19.7 +6.8 43 +21  1015.3  0.5  751  281  +12.7         
09 14.07.10 020 (С) 3{10}  >10 км    ясно 
+23.1 +6.4 34 +23  1013.4  -1.7  750  278           
12 14.07.10 010 (С) >10 км    ясно 
+25.9 +5.8 28 +26  1012.2  -1.1  749  275           
15 14.07.10 020 (С) >10 км    ясно 
+26 +5.3 26 +26  1011.6  -0.6  749  275           
18 14.07.10 060 (СВ) 10 км    ясно 
+22.9 +6.2 34 +23  1012.3  0.5  749  277    +26.4       
21 14.07.10 030 (СВ) 10 км    ясно 
+19.8 +8 46 +21  1012.8  0.4  749  280           
00 15.07.10 010 (С) 77  0100 м    1/1 600 м 
+6.8   1013.4  0.5  750             
03 15.07.10 050 (СВ) >10 км    ясно 
+18.3 +8.2 52 +20  1014.3  0.9  750  282           
06 15.07.10 350 (С) >10 км    3/0 верхняя 
[Ci fib]
+23.4 +12.6 51 +28  1014  750  276  +16.9         
09 15.07.10 020 (С) >10 км    ясно 
+26.9 +12.9 42 +32  1013.2  -0.6  750  273           
12 15.07.10 040 (СВ) 3{10}  >10 км    ясно 
+28.4 +12.3 37 +33  1012.6  -0.5  749  271           
15 15.07.10 030 (СВ) >10 км    ясно 
+28.2 +12.7 38 +33  1012.3  -0.4  749  271           
18 15.07.10 010 (С) >10 км    3/0 верхняя 
[Ci fib]
+25.1 +14.4 51 +33  1013  0.6  750  274  +28.6         
21 15.07.10 040 (СВ) >10 км    ясно 
+22.1 +9.8 46 +23  1013.8  0.6  750  278           
00 16.07.10 010 (С) >10 км    ясно 
+18.7 +9.2 54 +20  1014.5  0.6  750  281           
03 16.07.10 020 (С) >10 км    ясно 
+20.5 +12.3 59 +25  1014.6  0.2  751  279           
06 16.07.10 020 (С) >10 км    ясно 
+26.1 +11.3 40 +29  1014.5  0.1  751  274  +18.7         
09 16.07.10 030 (СВ) >10 км    ясно 
+29.7 +11.4 32 +33  1013.6  -0.7  750  271           
12 16.07.10 020 (С) >10 км    3/0 верхняя 
[Ci fib]
+32.3 +11.3 28 +35  1012.6  -1  749  268           
15 16.07.10 020 (С) >10 км    3/0 верхняя 
[Ci fib]
+32.8 +10.3 25 +34  1011.4  -1.1  749  268           
18 16.07.10 010 (С) 10 км    3/0 верхняя 
[Ci fib]
+29.3 +12.7 36 +34  1012  0.5  749  270    +33       
21 16.07.10 тихо ()   10 км    ясно 
+25.7 +13.4 47 +32  1012.2  749  273           
00 17.07.10 тихо ()   10 км    1/0 верхняя 
[Ci fib]
+23.7 +14.2 55 +31  1012.3  749  275           
03 17.07.10 010 (С) >10 км    ясно 
+23.7 +16.9 66 +36  1012.8  0.5  749  274           
06 17.07.10 320 (СЗ) >10 км    ясно 
+27.9 +17.1 52 +40  1012.5  749  270  +23.7         
09 17.07.10 340 (С) >10 км    ясно 
+31.3 +11 29 +34  1012.6  0.1  749  269           
12 17.07.10 030 (СВ) >10 км    ясно 
+32.9 +10.5 25 +35  1011.9  -0.6  749  268           
15 17.07.10 050 (СВ) >10 км    1/0 средняя 
[Ac trans]
+32.8 +12.3 29 +37  1010.6  -1.2  748  267           
18 17.07.10 тихо ()   10 км    5/0 средняя, верхняя 
[Ac lent|Ci fib]
+27.7 +14.7 45 +36  1010.8  -0.1  748  271    +33.9       
21 17.07.10 тихо ()   10 км    5/0 верхняя 
[Ci fib]
+25.1 +13.9 50 +32  1010.3  -0.6  748  273           
00 18.07.10 тихо ()   10 км    10/0 верхняя 
[Cs]
+23.8 +13.9 54 +31  1009.9  -0.5  747  274           
03 18.07.10 340 (С) 10 км    ясно 
+23.7 +15.4 60 +33  1010.3  0.4  747  274           
06 18.07.10 360 (С) >10 км    ясно 
+26.5 +15.3 50 +36  1011.2  1.1  748  272  +22.8         
09 18.07.10 040 (СВ) >10 км    9/3 600 м верхняя 
[Cu hum|Ci fib]
+28 +15.9 48 +38  1012  0.9  749  270           
12 18.07.10 030 (СВ) 4{10}  >10 км    8/0 средняя, верхняя 
[Ac cuf|Ci fib]
+25.3 +13.3 47 +31  1013.5  1.3  750  274           
15 18.07.10 360 (С) 3{10}  >10 км    8/3 600 м средняя 
[Sc diur, vesp|Ac cuf]
+23.3 +11.2 46 +26  1014.7  1.1  751  277           
18 18.07.10 050 (СВ) 10 км    ясно 
+22.3 +13.3 57 +28  1015.7  752  277    +28.3       
21 18.07.10 060 (СВ) 10 км    ясно 
+19.1 +9.3 53 +20  1017.3  1.3  752  282           
00 19.07.10 070 (В) 10 км    ясно 
+16.1 +8 59 +17  1019  1.5  754  285           
03 19.07.10 050 (СВ) >10 км    ясно 
+16.7 +9 60 +18  1019.9  0.9  754  285           
06 19.07.10 050 (СВ) >10 км    ясно 
+19.1 +1.7 31 +20  1019  -0.8  754  284  +15         
09 19.07.10 060 (СВ) >10 км    ясно 
+23.2 +3 27 +23  1018.5  -0.2  754  279           
12 19.07.10 060 (СВ) >10 км    1/0 верхняя 
[Ci fib]
+25.7 +2.9 23 +26  1018.1  -0.3  753  277           
15 19.07.10 060 (СВ) >10 км    3/0 верхняя 
[Ci fib]
+24.9 +5 28 +25  1017.9  -0.3  753  277           
18 19.07.10 030 (СВ) 10 км    ясно 
+23.2 +5 31 +23  1018.5  0.6  754  279    +26.4       
21 19.07.10 080 (В) 10 км    ясно 
+20.6 +6.1 39 +21  1018.7  754  281           
00 20.07.10 тихо ()   10 км    ясно 
+17 +7.7 54 +17  1019.6  0.8  754  285           
03 20.07.10 тихо ()   >10 км    ясно 
+19 +7.4 47 +19  1019.6  0.1  754  283           
06 20.07.10 250 (З) >10 км    ясно 
+24.1 +3.8 27 +24  1019.1  -0.3  754  279  +16.4         
09 20.07.10 280 (З) >10 км    ясно 
+26.9 +3.8 23 +27  1018.5  -0.5  754  276           
12 20.07.10 290 (З) >10 км    ясно 
+29.3 +5.1 22 +29  1016.9  -1.4  753  273           
15 20.07.10 240 (ЮЗ) >10 км    ясно 
+29.5 +4.1 20 +30  1015  -1.8  751  273           
18 20.07.10 тихо ()   10 км    1/0 средняя 
[Ac trans]
+23.5 +11.4 47 +27  1015.1  -0.2  751  277    +29.6       
21 20.07.10 тихо ()   10 км    3/0 верхняя 
[Ci fib]
+21.1 +10 49 +22  1015.2  751  279           
00 21.07.10 тихо ()   10 км    10/6 600 м средняя 
[Sc|Ac cast]
+21.2 +9.3 47 +21  1014.6  -0.6  751  279           
03 21.07.10 тихо ()   >10 км    9/5 600 м средняя 
[Sc|Ac cast]
+22.7 +10.2 45 +24  1015.5  751  278           
06 21.07.10 тихо ()   >10 км    1/0 средняя 
[Ac lent]
+26.3 +20 68 +45  1015.6  0.3  752  271  +19.1         
09 21.07.10 300 (СЗ) >10 км    4/4 600 м 
[Cu hum]
+30.3 +20.7 56 +51  1015.1  -0.4  751  267           
12 21.07.10 320 (СЗ) >10 км    4/4 600 м 
[Cu med, cong]
+32.2 +20.6 50 +52  1014.8  -0.2  751  266           
15 21.07.10 020 (С) >10 км    1/0 средняя 
[Ac lent]
+31.2 +18.6 47 +47  1014.8  -0.1  751  267           
18 21.07.10 010 (С) 10 км    3/0 верхняя 
[Ci fib]
+27.7 +15.7 48 +38  1015.8  0.9  752  272    +33.1       
21 21.07.10 080 (В) 10 км    ясно 
+24.9 +13 48 +30  1016.9  0.9  752  275           
00 22.07.10 090 (В) 10 км    ясно 
+22.6 +11.8 50 +26  1017.7  0.7  753  278           
03 22.07.10 090 (В) >10 км    3/0 верхняя 
[Ci fib]
+23.9 +11.5 46 +27  1018.5  0.8  754  277           
06 22.07.10 090 (В) >10 км    3/0 верхняя 
[Ci fib]
+28.7 +11.3 34 +31  1018.9  0.7  754  273  +22.2         
09 22.07.10 090 (В) >10 км    1/0 верхняя 
[Ci fib]
+30.9 +10.3 28 +32  1018.8  754  271           
12 22.07.10 290 (З) 98  >10 км    4/0 
+32.1 +10.4 26 +34  1017.8  -1  753  270           
15 22.07.10 090 (В) >10 км    1/0 верхняя 
[Ci fib]
+32.1 +9.9 25 +33  1017.4  -0.4  753  270           
18 22.07.10 тихо ()   10 км    ясно 
+26.7 +15.8 51 +37  1018.1  0.5  753  273    +32.7       
21 22.07.10 100 (В) 10 км    ясно 
+24.3 +15 56 +33  1018.3  0.1  753  276           
00 23.07.10 тихо ()   10 км    1/0 
+22.6 +14.3 59 +30  1019  0.6  754  278           
03 23.07.10 130 (ЮВ) >10 км    1/0 
+25.2 +16.6 59 +37  1019.7  0.8  755  275           
06 23.07.10 190 (Ю) >10 км    ясно 
+30.4 +12.2 33 +34  1018.6  -0.8  754  271  +12.7         
09 23.07.10 тихо ()   >10 км    1/1 1000 м 
[Cu hum]
+32.9 +11.2 27 +36  1018.5  754  269           
12 23.07.10 300 (СЗ) >10 км    3/3 1000 м 
[Cu hum]
+34 +11 25 +36  1017.2  -1.3  753  268           
15 23.07.10 280 (З) >10 км    ясно 
+33.2 +9.7 24 +34  1016.5  -0.7  752  269           
18 23.07.10 тихо ()   10 км    ясно 
+26.9 +12.9 42 +32  1016.9  0.1  752  274    +34.4       
21 23.07.10 тихо ()   10 км    ясно 
+24.5 +11.4 44 +27  1017  752  276           
00 24.07.10 тихо ()   10 км    1/0 средняя 
[Ac cast]
+24.1 +11.8 46 +28  1017.1  752  276           
03 24.07.10 тихо ()   >10 км    1/0 средняя 
[Ac cast]
+25.9 +13.3 46 +32  1017.4  0.4  753  274           
06 24.07.10 тихо ()   >10 км    ясно 
+32.4 +13.6 32 +39  1016.9  -0.1  753  269  +23.9         
09 24.07.10 160 (Ю) >10 км    3/3 600 м 
[Cu hum]
+34.6 +13.4 28 +41  1016.6  -0.3  752  267           
12 24.07.10 160 (Ю) >10 км    5/5 600 м 
[Cu med, cong]
+33.7 +10.7 25 +36  1015.5  -1.1  752  268           
15 24.07.10 090 (В) >10 км    3/3 600 м 
[Cu med, cong]
+34.7 +9.8 22 +36  1014.3  -1.1  751  267           
18 24.07.10 тихо ()   10 км    ясно 
+30.5 +12.8 34 +36  1014.5  751  270    +36.1       
21 24.07.10 тихо ()   10 км    ясно 
+29.1 +13.5 38 +35  1001.2  0.1  760  274           
00 25.07.10 тихо ()   10 км    ясно 
+23.5 +12.9 51 +29  1015.2  0.3  751  276           
03 25.07.10 тихо ()   >10 км    ясно 
+27.7 +10.9 35 +30  1015.4  0.4  751  273           
06 25.07.10 310 (СЗ) >10 км    3/0 средняя 
[Ac lent]
+33.6 +18.4 41 +49  1015.9  0.7  752  266  +23.3         
09 25.07.10 350 (С) >10 км    1/1 600 м 
[Cu hum]
+35.6 +18.2 36 +50  1015.5  -0.3  752  264           
12 25.07.10 320 (СЗ) >10 км    4/4 600 м 
[Cu hum]
+37 +18.1 33 +51  1015  -0.4  751  263           
15 25.07.10 070 (В) >10 км    9/9 1000 м 
[Cu med, cong]
+36.1 +18.5 36 +51  1014.8  -0.2  751  263           
18 25.07.10 тихо ()   10 км  в посл. час ливневой дождь{гроза}  10/0 средняя, верхняя 
[Ac cast|Ci fib]
+30.5 +16.1 42 +41  1016.2  1.1  752  269    +38.2       
21 25.07.10 070 (В) 10 км    5/0 верхняя 
[Ci fib]
+28.6 +15.1 44 +37  1017.4  1.1  753  272           
00 26.07.10 070 (В) 10 км    5/0 верхняя 
[Ci fib]
+25.7 +17 59 +38  1019.3  1.7  754  274           
03 26.07.10 070 (В) >10 км    ясно 
+23.8 +16.9 65 +36  1020.4  755  276           
06 26.07.10 060 (СВ) >10 км    ясно 
+26.7 +13.7 45 +33  1021.7  1.4  756  275  +23.8    0.0     
09 26.07.10 070 (В) >10 км    ясно 
+30.5 +13.5 35 +36  1022  0.5  756  272           
12 26.07.10 070 (В) >10 км    ясно 
+31.1 +8.5 25 +31  1021.8  -0.2  756  272           
15 26.07.10 090 (В) >10 км    ясно 
+30.9 +6.2 21 +31  1021.4  -0.5  756  273           
18 26.07.10 080 (В) 10 км    3/0 верхняя 
[Ci fib]
+27.5 +5.3 24 +28  1022.2  0.7  756  276    +31.2       
21 26.07.10 110 (В) 10 км    ясно 
+23.7 +7.8 36 +24  1022.8  0.4  757  279           
00 27.07.10 080 (В) 10 км    ясно 
+21.5 +7.7 41 +22  1023.6  0.7  757  282           
03 27.07.10 090 (В) >10 км    ясно 
+21.3 +7.4 41 +21  1024.5  0.9  758  282           
06 27.07.10 070 (В) >10 км    ясно 
+26.9 +14.2 46 +34  1024.3  0.1  758  275  +19.9         
09 27.07.10 080 (В) >10 км    ясно 
+29.7 +14.6 40 +37  1024  -0.2  758  272           
12 27.07.10 070 (В) >10 км    ясно 
+31.9 +15.5 37 +41  1022.9  -0.9  757  270           
15 27.07.10 060 (СВ) >10 км    3/0 верхняя 
[Ci fib]
+31.9 +14.5 35 +39  1021.7  -1.3  756  270           
18 27.07.10 080 (В) >10 км    3/0 средняя 
[Ac lent]
+26.9 +11.8 39 +30  1022.2  0.3  756  275    +32.4       
21 27.07.10 тихо ()   10 км    ясно 
+22.3 +11.2 49 +25  1022.6  0.1  756  280           
00 28.07.10 тихо ()   10 км    ясно 
+22 +10 46 +23  1023.8  1.2  757  281           
03 28.07.10 тихо ()   >10 км    8/0 верхняя 
[Ci fib]
+23.3 +12.7 51 +28  1023.8  0.1  757  279           
06 28.07.10 060 (СВ) >10 км    5/0 верхняя 
[Ci fib]
+29.7 +8.2 26 +30  1022.7  -0.8  757  274  +18.4         
09 28.07.10 100 (В) >10 км    8/0 верхняя 
[Ci fib]
+32.1 +6.4 20 +32  1021.8  -0.8  756  272           
12 28.07.10 090 (В) >10 км    3/0 верхняя 
[Ci fib]
+33.9 +6.8 19 +34  1020.4  -1.2  755  270           
15 28.07.10 100 (В) >10 км    3/0 верхняя 
[Ci fib]
+33.1 +8 21 +33  1019  -1.4  754  270           
18 28.07.10 090 (В) 10 км    3/0 средняя 
[Ac trans]
+29.3 +9.3 29 +29  1018.5  -0.7  754  273    +33.9       
21 28.07.10 090 (В) 10 км    5/0 верхняя 
[Ci fib]
+26.3 +9.7 35 +27  1018.9  0.2  754  275           
00 29.07.10 100 (В) 10 км    ясно 
+25.2 +9.2 36 +25  1018.4  -0.5  754  276           
03 29.07.10 150 (ЮВ) >10 км    ясно 
+24.5 +10.5 41 +26  1019.2  0.5  754  277           
06 29.07.10 130 (ЮВ) >10 км    ясно 
+32.5 +10.6 26 +34  1019  0.2  754  270  +23.9         
09 29.07.10 130 (ЮВ) >10 км    ясно 
+35.9 +7.3 17 +36  1019.7  -0.2  754  267           
12 29.07.10 180 (Ю) >10 км    ясно 
+37.1 +7.1 16 +37  1018.9  0.3  754  266           
15 29.07.10 170 (Ю) >10 км    ясно 
+35.9 +8.8 19 +36  1017.3  -1.7  753  267           
18 29.07.10 100 (В) 10 км    ясно 
+31.7 +8.9 24 +32  1017.6  0.2  753  270    +37.5       
21 29.07.10 100 (В) 10 км    ясно 
+28.6 +9.9 31 +30  1018.2  0.4  753  273           
00 30.07.10 100 (В) 10 км    ясно 
+25.9 +10.6 38 +28  1018.8  0.5  754  276           
03 30.07.10 110 (В) >10 км    ясно 
+25.9 +12 42 +30  1019.1  0.3  754  275           
06 30.07.10 160 (Ю) >10 км    ясно 
+33 +10.6 25 +35  1018.9  0.2  754  269  +24.6         
09 30.07.10 270 (З) >10 км    1/1 600 м 
[Cu med, cong]
+37.2 +7.7 17 +37  1018.7  -0.1  754  266           
12 30.07.10 120 (ЮВ) >10 км    3/3 600 м 
[Cu med, cong]
+38 +8.1 16 +38  1017.7  -1  753  265           
15 30.07.10 тихо ()   >10 км    ясно 
+36.7 +7 16 +37  1017.3  -0.5  753  266           
18 30.07.10 тихо ()   10 км    3/0 средняя 
[Ac lent]
+31 +14.3 36 +38  1017.7  0.3  753  270    +38.3       
21 30.07.10 060 (СВ) 10 км    ясно 
+28.9 +13.7 39 +35  1017.8  753  272           
00 31.07.10 100 (В) 10 км    3/0 средняя 
[Ac lent]
+26 +14.1 48 +33  1018.3  0.3  753  274           
03 31.07.10 100 (В) >10 км    3/0 средняя 
[Ac lent]
+25.4 +15.1 53 +34  1018.8  0.5  754  275           
06 31.07.10 160 (Ю) >10 км    3/0 верхняя 
[Ci fib]
+31.5 +13.2 33 +37  1019  0.4  754  270  +25         
09 31.07.10 050 (СВ) >10 км    3/0 верхняя 
[Ci fib]
+36.7 +15.6 29 +46  1018.5  -0.3  754  265           
12 31.07.10 150 (ЮВ) >10 км    3/0 
[Cu med, cong]
+38.1 +11.8 21 +42  1018.1  -0.4  754  264           
15 31.07.10 тихо ()   >10 км    ясно 
+37.4 +10.5 20 +39  1017.5  -0.6  753  265           
18 31.07.10 тихо ()   10 км    3/0 средняя 
[Ac cuf]
+30.8 +12.4 32 +35  1018.1  0.4  754  271    +38.9       
21 31.07.10 тихо ()   10 км    ясно 
+27.1 +13.2 42 +33  1018.6  0.3  754  274           
00 01.08.10 тихо ()   10 км    3/0 верхняя 
[Ci fib]
+26.5 +12.4 42 +31  1018.7  0.1  754  275           
03 01.08.10 160 (Ю) >10 км    4/0 средняя, верхняя 
[Ac cast|Ci fib]
+26.5 +12.6 42 +31  1018.9  0.2  754  275           
Время (UTC), дата Ветер
(°,м/с) 
Видим.   Явления Облачность Т
(°С)
Тd
(°С)
f(%) Тe
(°С)
Pmin
(гПа)
dP
(гПа)
Po
(мм)
O2
(г/м3)
Тmin Tmax R s Состояние
почвы